When you browse on this site, cookies collect data to enhance your experience and personalize the content and advertising you see.
Visit our Privacy Policy to learn more. By continuing to use the site, you agree to this use of cookies and data.
  • In Österreich
  • Länderverzeichnis
  • Für 7 Tage
  • Wassertemperatur
  • Wetterkarte
  • News
  • Widgets
  • user-avatar
    Anmelden

    Stündliche Wetter Krakow

    Heute, 2 April, Donnerstag

    Zeit Temperatur Niederschläge Wind Luftdruck Luftfeuchtigkeit
    00:00 -1°C° 0 mm 2 m/S 743 mmHg 61%
    01:00 -1°C° 0 mm 2 m/S 743 mmHg 61%
    02:00 -1°C° 0 mm 2 m/S 742 mmHg 61%
    03:00 -1°C° 0 mm 2 m/S 742 mmHg 61%
    04:00 -1°C° 0 mm 2 m/S 742 mmHg 61%
    05:00 0°C° 0 mm 3 m/S 742 mmHg 57%
    06:00 +1°C° 0 mm 3 m/S 742 mmHg 53%
    07:00 +2°C° 0 mm 3 m/S 742 mmHg 49%
    08:00 +3°C° 0 mm 4 m/S 741 mmHg 45%
    09:00 +5°C° 0 mm 4 m/S 741 mmHg 41%
    10:00 +7°C° 0 mm 4 m/S 741 mmHg 37%
    11:00 +8°C° 0 mm 4 m/S 740 mmHg 36%
    12:00 +10°C° 0 mm 4 m/S 740 mmHg 36%
    13:00 +10°C° 0 mm 4 m/S 740 mmHg 36%
    14:00 +10°C° 0 mm 4 m/S 739 mmHg 36%
    15:00 +10°C° 0 mm 4 m/S 739 mmHg 37%
    16:00 +10°C° 0 mm 4 m/S 738 mmHg 38%
    17:00 +7°C° 0 mm 4 m/S 738 mmHg 44%
    18:00 +7°C° 0 mm 3 m/S 738 mmHg 49%
    19:00 +4°C° 0 mm 3 m/S 738 mmHg 54%
    20:00 +3°C° 0 mm 3 m/S 738 mmHg 56%
    21:00 +3°C° 0 mm 3 m/S 738 mmHg 57%
    22:00 +2°C° 0 mm 3 m/S 738 mmHg 59%
    23:00 +2°C° 0 mm 3 m/S 738 mmHg 60%

    Morgen, 3 April, Freitag

    Zeit Temperatur Niederschläge Wind Luftdruck Luftfeuchtigkeit
    00:00 +1°C° 0 mm 3 m/S 738 mmHg 60%
    01:00 +1°C° 0 mm 3 m/S 738 mmHg 61%
    02:00 +1°C° 0 mm 3 m/S 738 mmHg 61%
    03:00 +1°C° 0 mm 3 m/S 737 mmHg 61%
    04:00 +1°C° 0 mm 3 m/S 737 mmHg 61%
    05:00 +1°C° 0 mm 4 m/S 737 mmHg 60%
    06:00 +3°C° 0 mm 4 m/S 738 mmHg 59%
    07:00 +4°C° 0 mm 4 m/S 738 mmHg 59%
    08:00 +5°C° 0 mm 5 m/S 738 mmHg 57%
    09:00 +7°C° 0 mm 5 m/S 738 mmHg 55%
    10:00 +8°C° 0 mm 6 m/S 738 mmHg 53%
    11:00 +9°C° 0 mm 6 m/S 739 mmHg 54%
    12:00 +9°C° 0 mm 6 m/S 739 mmHg 54%
    13:00 +9°C° 0 mm 5 m/S 739 mmHg 55%
    14:00 +9°C° 0.1 mm 5 m/S 739 mmHg 58%
    15:00 +8°C° 0.1 mm 5 m/S 740 mmHg 61%
    16:00 +8°C° 0.1 mm 5 m/S 740 mmHg 64%
    17:00 +7°C° 0.1 mm 4 m/S 740 mmHg 70%
    18:00 +5°C° 0.1 mm 3 m/S 741 mmHg 76%
    19:00 +5°C° 0.1 mm 2 m/S 741 mmHg 82%
    20:00 +5°C° 0 mm 2 m/S 742 mmHg 81%
    21:00 +4°C° 0 mm 2 m/S 743 mmHg 80%
    22:00 +4°C° 0 mm 2 m/S 743 mmHg 79%
    23:00 +3°C° 0 mm 2 m/S 744 mmHg 79%

    übermorgen, 4 April, Samstag

    Zeit Temperatur Niederschläge Wind Luftdruck Luftfeuchtigkeit
    00:00 +4°C° 0 mm 1 m/S 744 mmHg 80%
    01:00 +3°C° 0 mm 1 m/S 745 mmHg 80%
    02:00 +3°C° 0 mm 1 m/S 745 mmHg 81%
    03:00 +3°C° 0 mm 1 m/S 745 mmHg 81%
    04:00 +2°C° 0 mm 1 m/S 746 mmHg 82%
    05:00 +3°C° 0 mm 1 m/S 746 mmHg 78%
    06:00 +4°C° 0 mm 1 m/S 747 mmHg 75%
    07:00 +5°C° 0 mm 1 m/S 748 mmHg 71%
    08:00 +5°C° 0 mm 2 m/S 748 mmHg 65%
    09:00 +7°C° 0 mm 2 m/S 748 mmHg 58%
    10:00 +8°C° 0 mm 2 m/S 749 mmHg 51%
    11:00 +9°C° 0 mm 2 m/S 749 mmHg 50%
    12:00 +9°C° 0 mm 2 m/S 749 mmHg 48%
    13:00 +10°C° 0 mm 2 m/S 749 mmHg 47%
    14:00 +10°C° 0 mm 2 m/S 749 mmHg 47%
    15:00 +10°C° 0 mm 2 m/S 749 mmHg 47%
    16:00 +10°C° 0 mm 2 m/S 750 mmHg 48%
    17:00 +8°C° 0 mm 2 m/S 750 mmHg 53%
    18:00 +7°C° 0 mm 2 m/S 751 mmHg 58%
    19:00 +5°C° 0 mm 2 m/S 751 mmHg 63%
    20:00 +5°C° 0 mm 2 m/S 752 mmHg 64%
    21:00 +4°C° 0 mm 2 m/S 752 mmHg 66%
    22:00 +3°C° 0 mm 2 m/S 753 mmHg 67%
    23:00 +4°C° 0 mm 1 m/S 753 mmHg 69%

    5 April, Sonntag

    Zeit Temperatur Niederschläge Wind Luftdruck Luftfeuchtigkeit
    00:00 +4°C° 0 mm 1 m/S 754 mmHg 71%
    01:00 +3°C° 0 mm 1 m/S 754 mmHg 72%
    02:00 +3°C° 0 mm 1 m/S 754 mmHg 74%
    03:00 +2°C° 0 mm 1 m/S 754 mmHg 76%
    04:00 +1°C° 0 mm 2 m/S 754 mmHg 78%
    05:00 +2°C° 0 mm 2 m/S 755 mmHg 74%
    06:00 +3°C° 0 mm 2 m/S 755 mmHg 69%
    07:00 +4°C° 0 mm 2 m/S 755 mmHg 65%
    08:00 +5°C° 0 mm 3 m/S 755 mmHg 57%
    09:00 +6°C° 0 mm 4 m/S 755 mmHg 50%
    10:00 +8°C° 0 mm 5 m/S 755 mmHg 43%
    11:00 +9°C° 0 mm 5 m/S 755 mmHg 42%
    12:00 +10°C° 0 mm 6 m/S 755 mmHg 41%
    13:00 +10°C° 0 mm 6 m/S 755 mmHg 40%
    14:00 +10°C° 0 mm 6 m/S 754 mmHg 42%
    15:00 +10°C° 0 mm 6 m/S 754 mmHg 43%
    16:00 +10°C° 0 mm 6 m/S 753 mmHg 44%
    17:00 +8°C° 0 mm 5 m/S 754 mmHg 49%
    18:00 +7°C° 0 mm 5 m/S 754 mmHg 54%
    19:00 +5°C° 0 mm 4 m/S 754 mmHg 59%
    20:00 +5°C° 0 mm 4 m/S 754 mmHg 62%
    21:00 +4°C° 0 mm 4 m/S 754 mmHg 64%
    22:00 +3°C° 0 mm 3 m/S 754 mmHg 66%
    23:00 +3°C° 0 mm 3 m/S 754 mmHg 68%

    6 April, Montag

    Zeit Temperatur Niederschläge Wind Luftdruck Luftfeuchtigkeit
    00:00 +3°C° 0 mm 2 m/S 754 mmHg 70%
    01:00 +3°C° 0 mm 2 m/S 754 mmHg 72%
    02:00 +2°C° 0 mm 2 m/S 754 mmHg 72%
    03:00 +3°C° 0 mm 1 m/S 754 mmHg 73%
    04:00 +3°C° 0 mm 1 m/S 754 mmHg 73%
    05:00 +4°C° 0 mm 1 m/S 754 mmHg 70%
    06:00 +5°C° 0 mm 1 m/S 754 mmHg 66%
    07:00 +7°C° 0 mm 1 m/S 754 mmHg 62%
    08:00 +9°C° 0 mm 1 m/S 754 mmHg 55%
    09:00 +12°C° 0 mm 2 m/S 754 mmHg 49%
    10:00 +14°C° 0 mm 2 m/S 755 mmHg 43%
    11:00 +16°C° 0 mm 2 m/S 755 mmHg 39%
    12:00 +17°C° 0 mm 2 m/S 755 mmHg 36%
    13:00 +18°C° 0 mm 2 m/S 755 mmHg 33%
    14:00 +18°C° 0 mm 2 m/S 754 mmHg 34%
    15:00 +18°C° 0 mm 2 m/S 754 mmHg 35%
    16:00 +18°C° 0 mm 3 m/S 754 mmHg 36%
    17:00 +15°C° 0 mm 2 m/S 754 mmHg 40%
    18:00 +13°C° 0 mm 2 m/S 754 mmHg 45%
    19:00 +10°C° 0 mm 2 m/S 754 mmHg 50%
    20:00 +9°C° 0 mm 2 m/S 754 mmHg 51%
    21:00 +8°C° 0 mm 2 m/S 755 mmHg 53%
    22:00 +7°C° 0 mm 2 m/S 755 mmHg 55%
    23:00 +8°C° 0 mm 1 m/S 755 mmHg 56%

    7 April, Dienstag

    Zeit Temperatur Niederschläge Wind Luftdruck Luftfeuchtigkeit
    00:00 +7°C° 0 mm 1 m/S 755 mmHg 56%
    01:00 +6°C° 0 mm 1 m/S 755 mmHg 57%
    02:00 +6°C° 0 mm 1 m/S 756 mmHg 58%
    03:00 +6°C° 0 mm 1 m/S 756 mmHg 58%
    04:00 +5°C° 0 mm 1 m/S 756 mmHg 59%
    05:00 +6°C° 0 mm 1 m/S 756 mmHg 57%
    06:00 +7°C° 0 mm 1 m/S 756 mmHg 55%
    07:00 +8°C° 0 mm 1 m/S 757 mmHg 53%
    08:00 +10°C° 0 mm 1 m/S 757 mmHg 48%
    09:00 +13°C° 0 mm 1 m/S 757 mmHg 42%
    10:00 +15°C° 0 mm 1 m/S 757 mmHg 36%
    11:00 +16°C° 0 mm 1 m/S 757 mmHg 34%
    12:00 +18°C° 0 mm 1 m/S 757 mmHg 31%
    13:00 +19°C° 0 mm 1 m/S 757 mmHg 29%
    14:00 +19°C° 0 mm 1 m/S 756 mmHg 29%
    15:00 +19°C° 0 mm 1 m/S 756 mmHg 29%
    16:00 +19°C° 0 mm 1 m/S 756 mmHg 30%
    17:00 +16°C° 0 mm 1 m/S 756 mmHg 34%
    18:00 +14°C° 0 mm 1 m/S 756 mmHg 39%
    19:00 +11°C° 0 mm 0 m/S 756 mmHg 43%
    20:00 +11°C° 0 mm 1 m/S 756 mmHg 45%
    21:00 +10°C° 0 mm 1 m/S 756 mmHg 46%
    22:00 +10°C° 0 mm 1 m/S 756 mmHg 48%
    23:00 +9°C° 0 mm 1 m/S 756 mmHg 49%
    Mehr zeigen